Pine Ridge, SD

1:48 AM MDT on May 23, 2017 (GMT -0600)
Pine Ridge

Weather History for KIEN - February, 2013

Change the Weather History Date:

Tuesday, February 26, 2013

  Actual Average Record
Temperature  
Mean Temperature 28 °F 30 °F  
Max Temperature 43 °F 43 °F 61 °F (2005)
Min Temperature 13 °F 16 °F -10 °F (2014)
Degree Days  
Heating Degree Days 37 35  
Month to date heating degree days 903 1004  
Since 1 July heating degree days 5030 5281  
Cooling Degree Days 0 0  
Month to date cooling degree days 0 0  
Year to date cooling degree days 0 0  
Moisture  
Dew Point 19 °F    
Average Humidity 57    
Maximum Humidity 84    
Minimum Humidity 30    
Precipitation  
Precipitation T in 0.01 in 0.05 in (2011)
Month to date precipitation 0.18 0.42  
Year to date precipitation 0.94 0.74  
Sea Level Pressure  
Sea Level Pressure 29.96 in    
Wind  
Wind Speed 9 mph (NNW)    
Max Wind Speed 22 mph    
Max Gust Speed 28 mph    
Visibility 10 miles    
Events      
T = Trace of Precipitation, MM = Missing Value Source: NWS Daily Summary

Daily Weather History Graph

Daily Weather History Graph

Search for Another Location

Airport or City:

Trip Planner

Search our weather history database for the weather conditions in past years. The results will help you decide how hot, cold, wet, or windy it might be!

Date:

Astronomy

Feb. 26, 2013 Rise Set
Actual Time 6:30 AM MST 5:35 PM MST
Civil Twilight 6:01 AM MST 6:04 PM MST
Nautical Twilight 5:28 AM MST 6:37 PM MST
Astronomical Twilight 4:56 AM MST 7:10 PM MST
Moon 6:58 PM MST (2/26) 6:31 AM MST (2/26)
Length of Visible Light 12h 02m
Length of Day
11h 05m
Full, 99% of the Moon is Illuminated
Feb 26
Full
Mar 4
Last Quarter
Mar 11
New
Mar 19
First Quarter
Mar 27
Full

Hourly Weather History & Observations

Time (MST) Temp. Windchill Dew Point Humidity Pressure Visibility Wind Dir Wind Speed Gust Speed Precip Events Conditions
12:52 AM 26.1 °F - 15.1 °F 63% 29.88 in 10.0 mi Calm Calm - N/A   Clear
1:52 AM 26.1 °F 20.5 °F 14.0 °F 60% 29.87 in 10.0 mi West 4.6 mph - N/A   Clear
2:52 AM 21.9 °F - 15.1 °F 75% 29.87 in 10.0 mi Calm Calm - N/A   Clear
3:52 AM 19.9 °F 14.9 °F 14.0 °F 78% 29.86 in 10.0 mi West 3.5 mph - N/A   Clear
4:52 AM 19.9 °F 14.9 °F 15.1 °F 81% 29.88 in 10.0 mi West 3.5 mph - N/A   Clear
5:52 AM 19.0 °F 13.9 °F 14.0 °F 81% 29.90 in 10.0 mi NW 3.5 mph - N/A   Clear
6:52 AM 17.1 °F - 12.0 °F 81% 29.93 in 10.0 mi Calm Calm - N/A   Clear
7:52 AM 24.1 °F - 18.0 °F 77% 29.92 in 10.0 mi Calm Calm - N/A   Clear
8:52 AM 28.9 °F 23.9 °F 19.9 °F 69% 29.94 in 10.0 mi WSW 4.6 mph - N/A   Clear
9:52 AM 35.1 °F 29.3 °F 21.0 °F 57% 29.92 in 10.0 mi Variable 6.9 mph - N/A   Clear
10:52 AM 37.9 °F 29.6 °F 21.9 °F 53% 29.92 in 10.0 mi North 13.8 mph 21.9 mph N/A   Clear
11:52 AM 39.9 °F 31.8 °F 23.0 °F 51% 29.92 in 10.0 mi North 15.0 mph 21.9 mph N/A   Clear
12:52 PM 42.1 °F 34.5 °F 21.0 °F 43% 29.90 in 10.0 mi North 15.0 mph 25.3 mph N/A   Clear
1:52 PM 42.1 °F 34.9 °F 19.9 °F 41% 29.90 in 10.0 mi North 13.8 mph 17.3 mph N/A   Clear
2:52 PM 42.1 °F 35.2 °F 19.0 °F 40% 29.94 in 10.0 mi NNE 12.7 mph - N/A   Clear
3:52 PM 42.1 °F 35.2 °F 14.0 °F 32% 29.97 in 10.0 mi NNE 12.7 mph 19.6 mph N/A   Clear
4:52 PM 39.9 °F 33.4 °F 14.0 °F 35% 29.99 in 10.0 mi North 10.4 mph - N/A   Clear
5:52 PM 35.1 °F 25.5 °F 27.0 °F 72% 30.05 in 10.0 mi North 15.0 mph 27.6 mph N/A   Clear
6:52 PM 33.1 °F 22.6 °F 27.0 °F 78% 30.09 in 10.0 mi North 16.1 mph 23.0 mph N/A   Clear
7:52 PM 33.1 °F 22.6 °F 27.0 °F 78% 30.10 in 10.0 mi North 16.1 mph 23.0 mph N/A   Mostly Cloudy
8:52 PM 34.0 °F 24.2 °F 26.1 °F 73% 30.10 in 10.0 mi North 15.0 mph 26.5 mph N/A   Overcast
10:52 PM 34.0 °F 27.2 °F 25.0 °F 70% 30.12 in 10.0 mi North 8.1 mph - 0.00 in   Overcast
11:52 PM 30.9 °F 20.7 °F 23.0 °F 72% 30.15 in 10.0 mi North 13.8 mph 21.9 mph N/A   Overcast